"Pseudo-MPEC" for P21JpZh

Created 2023 Oct 21 5:22:22 UT using Find_Orb

Click here for an explanation of pseudo-MPECs

 
 Astrometry: 
     P21JpZh* C2023 09 13VL\,RWdi\Qkaxq1r]18^q5PAV=muM?137Oeo9T+ElAstrometryCF52
     P21JpZh  C2023 09 13q#oUiPGMG\WB9O54V.Ejredacted;FN/oBgGdiJZxmdE@1click(F52
     P21JpZh  C2023 09 13RSu[C/7+here.[Q\EFXc!E'HdpLxIfor@bnexplanation:sPFK'F52
     P21JpZh 1C2023 09 18.00458 00 27 34.60 +13 45 22.3    ~9I17 22.0 VXNEOCP033
     P21JpZh 1C2023 09 18.00816 00 27 34.44 +13 45 11.5    ~9I17 22.0 VXNEOCP033
     P21JpZh 1C2023 09 18.01175 00 27 34.27 +13 45 00.7    ~9I17 21.5 VXNEOCP033

Station data:
(033) Karl Schwarzschild Observatory, Tautenburg  (N50.980137 E11.711240)
   Germany.  Observer B. Stecklum. 1.34-m f/3 Schmidt + CCD.
(F52) Pan-STARRS 2, Haleakala  (N20.707382 W156.255910)  US/Hawaii.
   Observers J. Bulger, T. Dukes, T. Lowe, A. Schultz, M. Willman. Measurers
   K. Chambers, S. Chastel, T. de Boer, L. Denneau, J. Fairlamb, H.
   Flewelling, M. Huber, C.-C. Lin, E. Magnier, Y. Ramanjooloo, R. Wainscoat,
   R. Weryk. 1.8-m Ritchey-Chrétien + CCD.

Orbital elements:  P21JpZh
   Perihelion 2023 Jul 12.04528 +/- 0.95 TT =  1:05:11 (JD 2460137.54528)
Epoch 2023 Sep 18.0 TT = JDT 2460205.5   Earth MOID: 0.1850   Ma: 0.0364
M  10.35913879 +/- 4.9              (J2000 ecliptic)             AutoNEOCP
n   0.15244177 +/- 0.0722           Peri.   97.01292 +/- 0.15
a   3.47056391 +/- 1.1              Node   190.11245 +/- 0.29
e   0.7195942 +/- 0.0897            Incl.   14.00529 +/- 1.8
P   6.47                   H 22.32  G  0.15   U 11.0
q 0.97316605 +/- 0.00746    Q 5.96796178 +/- 2.2
From 6 observations 2023 Sept. 13-18; mean residual 0".15
Residuals in arcseconds: 
230913 F52  .04-  .01+    230913 F52  .00   .01+    230918 033  .05+  .01-    
230913 F52  .04+  .02-    230918 033  .34+  .04-    230918 033  .39-  .05+    

Ephemerides (geocentric):
Date (UTC) HH   RA             Dec           delta  r     elong  mag " sig PA
---- --------  ------------   ------------  ------ ------ -----  --- --------
2023 10 21 05  00 17 44.846   -02 30 27.56  .72022 1.6779 155.5 23.5  338   9
2023 10 21 06  00 17 45.014   -02 30 59.18  .72078 1.6783 155.5 23.5  339   9
2023 10 21 07  00 17 45.184   -02 31 30.71  .72135 1.6787 155.5 23.5  340   9
2023 10 21 08  00 17 45.357   -02 32 02.17  .72192 1.6791 155.4 23.5  341   9
2023 10 21 09  00 17 45.532   -02 32 33.56  .72249 1.6795 155.4 23.6  342   9
2023 10 21 10  00 17 45.710   -02 33 04.87  .72305 1.6799 155.3 23.6  343   9
2023 10 21 11  00 17 45.891   -02 33 36.10  .72362 1.6803 155.3 23.6  344  10
2023 10 21 12  00 17 46.074   -02 34 07.26  .72419 1.6807 155.2 23.6  345  10
2023 10 21 13  00 17 46.259   -02 34 38.34  .72476 1.6811 155.2 23.6  346  10
2023 10 21 14  00 17 46.447   -02 35 09.35  .72533 1.6815 155.1 23.6  347  10
2023 10 21 15  00 17 46.638   -02 35 40.28  .72590 1.6819 155.1 23.6  348  10
2023 10 21 16  00 17 46.831   -02 36 11.14  .72647 1.6823 155.0 23.6  349  10
2023 10 21 17  00 17 47.026   -02 36 41.92  .72704 1.6827 155.0 23.6  350  10
2023 10 21 18  00 17 47.224   -02 37 12.62  .72761 1.6831 155.0 23.6  351  10
2023 10 21 19  00 17 47.425   -02 37 43.25  .72818 1.6835 154.9 23.6  352  10
2023 10 21 20  00 17 47.628   -02 38 13.81  .72875 1.6839 154.9 23.6  353  10
2023 10 21 21  00 17 47.834   -02 38 44.29  .72932 1.6843 154.8 23.6  354  10
2023 10 21 22  00 17 48.042   -02 39 14.70  .72989 1.6847 154.8 23.6  355  10
2023 10 21 23  00 17 48.252   -02 39 45.03  .73046 1.6851 154.7 23.6  356  10
2023 10 22 00  00 17 48.466   -02 40 15.29  .73104 1.6855 154.7 23.6  357  10
2023 10 22 01  00 17 48.681   -02 40 45.47  .73161 1.6859 154.6 23.6  358  11
2023 10 22 02  00 17 48.899   -02 41 15.58  .73218 1.6863 154.6 23.6  359  11
2023 10 22 03  00 17 49.120   -02 41 45.62  .73276 1.6867 154.6 23.6  360  11
2023 10 22 04  00 17 49.343   -02 42 15.58  .73333 1.6871 154.5 23.6  361  11
2023 10 22 05  00 17 49.569   -02 42 45.47  .73390 1.6875 154.5 23.6  362  11
2023 10 22 06  00 17 49.797   -02 43 15.28  .73448 1.6879 154.4 23.6  363  11
2023 10 22 07  00 17 50.028   -02 43 45.02  .73505 1.6883 154.4 23.6  364  11
2023 10 22 08  00 17 50.261   -02 44 14.69  .73563 1.6887 154.3 23.6  365  11
2023 10 22 09  00 17 50.497   -02 44 44.28  .73620 1.6891 154.3 23.6  366  11
2023 10 22 10  00 17 50.735   -02 45 13.80  .73678 1.6895 154.2 23.6  367  11
2023 10 22 11  00 17 50.976   -02 45 43.25  .73735 1.6899 154.2 23.6  368  11
2023 10 22 12  00 17 51.219   -02 46 12.62  .73793 1.6903 154.2 23.6  369  11
2023 10 22 13  00 17 51.465   -02 46 41.92  .73850 1.6907 154.1 23.6  370  11
2023 10 22 14  00 17 51.713   -02 47 11.15  .73908 1.6911 154.1 23.6  371  11
2023 10 22 15  00 17 51.964   -02 47 40.30  .73966 1.6915 154.0 23.6  372  12
2023 10 22 16  00 17 52.217   -02 48 09.38  .74023 1.6919 154.0 23.6  373  12
2023 10 22 17  00 17 52.473   -02 48 38.39  .74081 1.6923 153.9 23.6  374  12
2023 10 22 18  00 17 52.731   -02 49 07.33  .74139 1.6927 153.9 23.6  375  12
2023 10 22 19  00 17 52.992   -02 49 36.19  .74197 1.6931 153.8 23.7  376  12
2023 10 22 20  00 17 53.255   -02 50 04.98  .74255 1.6935 153.8 23.7  377  12
2023 10 22 21  00 17 53.521   -02 50 33.70  .74313 1.6939 153.8 23.7  378  12
2023 10 22 22  00 17 53.789   -02 51 02.35  .74370 1.6943 153.7 23.7  379  12
2023 10 22 23  00 17 54.060   -02 51 30.92  .74428 1.6947 153.7 23.7  380  12
2023 10 23 00  00 17 54.333   -02 51 59.43  .74486 1.6951 153.6 23.7  381  12
2023 10 23 01  00 17 54.609   -02 52 27.86  .74544 1.6955 153.6 23.7  382  12
2023 10 23 02  00 17 54.887   -02 52 56.22  .74602 1.6959 153.5 23.7  383  12
2023 10 23 03  00 17 55.167   -02 53 24.50  .74660 1.6963 153.5 23.7  384  12
2023 10 23 04  00 17 55.450   -02 53 52.72  .74718 1.6967 153.4 23.7  385  12